Regional Weather Roundup
Issued by NWS

Home | Current Version | Previous Version | Graphics & Text | Print | Product List | Glossary On
Versions: 1 2 3 4 5 6 7 8 9 10 11 12 13 14 15 16 17 18 19 20 21 22 23 24 25 26 27 28 29 30 31 32 33 34 35 36 37 38 39 40 41 42 43 44 45 46 47 48 49 50
000
ASUS43 KLMK 050810
RWRKY
KENTUCKY REGIONAL WEATHER ROUNDUP
NATIONAL WEATHER SERVICE LOUISVILLE KY
300 AM EST THU MAR 05 2015

NOTE "FAIR" INDICATES FEW OR NO CLOUDS BELOW 12,000 FEET
WITH NO SIGNIFICANT WEATHER AND/OR OBSTRUCTIONS TO VISIBILITY.

KYZ001>023-026-027-061>063-070>075-050900-
WESTERN AND SOUTH CENTRAL KENTUCKY

CITY           SKY/WX    TMP DP  RH WIND       PRES   REMARKS
PADUCAH        FLURRIES  18  15  88 NE7       30.30F WCI   9
HENDERSON      CLOUDY    19   7  58 N10G17    30.32S WCI   8
OWENSBORO      LGT SNOW  18  16  92 N8        30.30S VSB 1   WCI   8
HOPKINSVILLE   LGT SNOW  18  15  89 N14       30.23S FOG     WCI   4
BOWLING GREEN  LGT SNOW  23  19  85 N10G17    30.22F VSB 1   WCI  12
GLASGOW        LGT SNOW  24  22  96 N15G23    30.19S WCI  11
$$

KYZ024-025-028>034-038-045-046-053-050900-
NORTH CENTRAL KENTUCKY

CITY           SKY/WX    TMP DP  RH WIND       PRES   REMARKS
LOUISVILLE/SDF LGT SNOW  21  17  84 N14       30.26S VSB 3/4 WCI   8
LOUISVILLE/LOU LGT SNOW  21  16  81 N14       30.26S VSB 3/4 WCI   8
FORT KNOX      LGT SNOW  20  17  88 N12       30.23R VSB 1   WCI   8
$$

KYZ035>037-039>044-047>052-055>060-089>105-050900-
NORTHEAST KENTUCKY

CITY           SKY/WX    TMP DP  RH WIND       PRES   REMARKS
LEXINGTON      CLOUDY    21  18  88 N16G25    30.19R FOG     WCI   7
COVINGTON      CLOUDY    20   8  60 N20       30.24R WCI   4
FRANKFORT      LGT SNOW  20  16  84 N13G25    30.21R VSB 3/4 WCI   7
$$

KYZ054-064>069-076>088-106>120-050900-
SOUTHEAST KENTUCKY

CITY           SKY/WX    TMP DP  RH WIND       PRES   REMARKS
JACKSON        LGT SNOW  30  28  92 NE6       30.10R FOG     WCI  24
LONDON         MIX PCPN  32  28  85 N10       30.08F FOG     WCI  24
SOMERSET       LGT SNOW  28  28 100 N9        30.12F WCI  20
MIDDLESBORO    LGT RAIN  34  33  94 N5        30.03F WCI  30
MONTICELLO     LGT SNOW  30  29  96 CALM      30.11F FOG
$$




USA.gov is the U.S. government's official web portal to all federal, state and local government web resources and services.